Regional Weather Roundup
Issued by NWS

Home | Current Version | Previous Version | Text Only | Print | Product List | Glossary Off
Versions: 1 2 3 4 5 6 7 8 9 10 11 12 13 14 15 16 17 18 19 20 21 22 23 24 25 26 27 28 29 30 31 32 33 34 35 36 37 38 39 40 41 42 43 44 45 46 47 48 49 50

000
ASUS45 KCYS 201810
RWRWY

WYOMING REGIONAL WEATHER ROUNDUP
NATIONAL WEATHER SERVICE CHEYENNE WY
1200 PM MDT SAT SEP 20 2014

NOTE:  "FAIR" INDICATES FEW OR NO CLOUDS BELOW 12,000 FEET
WITH NO SIGNIFICANT WEATHER AND/OR OBSTRUCTIONS TO VISIBILITY.

WYZ001-201900-
YELLOWSTONE NATIONAL PARK

CITY           SKY/WX    TMP DP  RH WIND       PRES   REMARKS
LK YELLOWSTONE   N/A     56  39  53 E5        30.46R
6HR MIN TEMP:  32; 6HR MAX TEMP:  57;

W YELLOWSTONE  NOT AVBL

$$
WYZ002>013-054>058-071-098>099-201900-
NORTHERN WYOMING

CITY           SKY/WX    TMP DP  RH WIND       PRES   REMARKS
JACKSON        SUNNY     64  43  45 CALM      30.36F
CODY             N/A    N/A N/A N/A MISG        N/A
GREYBULL       SUNNY     74  37  26 N10       30.24F
6HR MIN TEMP:  48; 6HR MAX TEMP:  74;

WORLAND        SUNNY     72  43  35 VRB7      30.26S
6HR MIN TEMP:  47; 6HR MAX TEMP:  72;

SHERIDAN       SUNNY     71  43  36 N14G24    30.26R
6HR MIN TEMP:  50; 6HR MAX TEMP:  71;

BUFFALO        SUNNY     67  41  38 N23G30    30.29R
6HR MIN TEMP:  54; 6HR MAX TEMP:  67;

GILLETTE       SUNNY     70  41  34 NW22G30   30.25R
6HR MIN TEMP:  51; 6HR MAX TEMP:  70;

HULETT         FAIR      70  39  32 MISG      30.24
NEWCASTLE      FAIR      70  37  30 NW20G31   30.22

$$
WYZ014>020-022>026-101>103-201900-
CENTRAL WYOMING

CITY           SKY/WX    TMP DP  RH WIND       PRES   REMARKS
BIG PINEY      SUNNY     67  37  33 VRB6      30.37F
6HR MIN TEMP:  34; 6HR MAX TEMP:  69;

PINEDALE       CLEAR     66  34  30 CALM      30.38S
DUBOIS         FAIR      68  30  24 N6G16     30.36F
LANDER         SUNNY     73  40  30 VRB3      30.27F
6HR MIN TEMP:  51; 6HR MAX TEMP:  74;

RIVERTON       SUNNY     70  44  39 E12G18    30.30S
6HR MIN TEMP:  47; 6HR MAX TEMP:  70;

CASPER         SUNNY     73  43  33 NE7       30.28F
6HR MIN TEMP:  44; 6HR MAX TEMP:  73;

DOUGLAS        SUNNY     74  45  35 SW7       30.27S
6HR MIN TEMP:  44; 6HR MAX TEMP:  74;


$$
WYZ021-027>030-104>119-201900-
SOUTHERN WYOMING

CITY           SKY/WX    TMP DP  RH WIND       PRES   REMARKS
EVANSTON       SUNNY     70  34  26 CALM      30.37S
6HR MIN TEMP:  46; 6HR MAX TEMP:  70;

KEMMERER       CLEAR     70  32  24 SE6       30.40S
FORT BRIDGER   FAIR      66  38  35 N5        30.40F
ROCK SPRINGS   SUNNY     68  36  30 N5        30.36F
6HR MIN TEMP:  44; 6HR MAX TEMP:  68;

DIXON          FAIR      70  39  31 CALM      30.36F
RAWLINS        SUNNY     69  36  29 W3        30.35F
6HR MIN TEMP:  39; 6HR MAX TEMP:  69;

SARATOGA       FAIR      68  37  32 N6        30.37S
LARAMIE        SUNNY     70  38  31 VRB7      30.36F
6HR MIN TEMP:  38; 6HR MAX TEMP:  70;

CHEYENNE       SUNNY     73  45  36 MISG      30.29F
6HR MIN TEMP:  52; 6HR MAX TEMP:  74;

TORRINGTON     SUNNY     76  49  38 VRB5      30.20S
6HR MIN TEMP:  50; 6HR MAX TEMP:  76;

PINE BLUFFS    FAIR      72  45  37 CALM      30.26S

$$



USA.gov is the U.S. government's official web portal to all federal, state and local government web resources and services.